Regional Weather Roundup
Issued by NWS

Home | Current Version | Previous Version | Graphics & Text | Print | Product List | Glossary On
Versions: 1 2 3 4 5 6 7 8 9 10 11 12 13 14 15 16 17 18 19 20 21 22 23 24 25 26 27 28 29 30 31 32 33 34 35 36 37 38 39 40 41 42 43 44 45 46 47 48 49 50
000
ASUS43 KBIS 300310
RWRND

NORTH DAKOTA REGIONAL WEATHER ROUNDUP
NATIONAL WEATHER SERVICE BISMARCK ND
1000 PM CDT SAT APR 29 2017

NOTE: "FAIR" INDICATES FEW OR NO CLOUDS BELOW 12,000 FEET WITH NO
SIGNIFICANT WEATHER AND/OR OBSTRUCTIONS TO VISIBILITY.


NDZ001>003-009>011-017-300400-
NORTHWEST NORTH DAKOTA

CITY           SKY/WX    TMP DP  RH WIND       PRES   REMARKS
WILLISTON      FAIR      47  33  58 NW6       30.12S
MINOT          FAIR      52  29  41 SW6       30.12F
MINOT AFB      CLEAR     44  33  66 CALM      30.11F
$$

NDZ018>021-031>035-040>046-300400-
SOUTHWEST NORTH DAKOTA

CITY           SKY/WX    TMP DP  RH WIND       PRES   REMARKS
BISMARCK       FAIR      45  28  51 SE8       30.18R
DICKINSON      FAIR      40  20  44 S6        30.13R
GARRISON         N/A     44  26  49 SE7       30.14S
HETTINGER ARPT CLEAR     41  20  43 SE5       30.18R
$$

NDZ004>008-012>016-024-026-027-054-300400-
NORTHEAST NORTH DAKOTA

CITY           SKY/WX    TMP DP  RH WIND       PRES   REMARKS
GRAND FORKS    CLOUDY    52  33  48 SE7       30.22R
GRND FRKS AFB  CLOUDY    48  28  44 SE6       30.21S
DEVILS LAKE    FAIR      46  33  60 SE9       30.18S
$$

NDZ022-023-025-028>030-036>039-047>053-300400-
SOUTHEAST NORTH DAKOTA

CITY           SKY/WX    TMP DP  RH WIND       PRES   REMARKS
FARGO          MOCLDY    49  24  37 NE5       30.22R
JAMESTOWN      FAIR      47  32  56 E6        30.20R
$$




USA.gov is the U.S. government's official web portal to all federal, state and local government web resources and services.